Regional Weather Roundup
Issued by NWS

Home | Current Version | Previous Version | Graphics & Text | Print | Product List | Glossary On
Versions: 1 2 3 4 5 6 7 8 9 10 11 12 13 14 15 16 17 18 19 20 21 22 23 24 25 26 27 28 29 30 31 32 33 34 35 36 37 38 39 40 41 42 43 44 45 46 47 48 49 50
000
ASUS43 KBIS 040110
RWRND

NORTH DAKOTA REGIONAL WEATHER ROUNDUP
NATIONAL WEATHER SERVICE BISMARCK ND
800 PM CDT MON AUG 03 2015

NOTE: "FAIR" INDICATES FEW OR NO CLOUDS BELOW 12,000 FEET WITH NO
SIGNIFICANT WEATHER AND/OR OBSTRUCTIONS TO VISIBILITY.


NDZ001>003-009>011-017-040200-
NORTHWEST NORTH DAKOTA

CITY           SKY/WX    TMP DP  RH WIND       PRES   REMARKS
WILLISTON      SUNNY     82  43  25 E9        29.93F
MINOT          SUNNY     74  48  39 NE5       29.94F
MINOT AFB      SUNNY     81  49  32 NW2       29.93F
$$

NDZ018>021-031>035-040>046-040200-
SOUTHWEST NORTH DAKOTA

CITY           SKY/WX    TMP DP  RH WIND       PRES   REMARKS
BISMARCK       SUNNY     78  47  33 NE8       29.95S
DICKINSON      SUNNY     76  52  43 E9        29.94F
GARRISON         N/A     76  51  41 NE3       29.95F
HETTINGER ARPT SUNNY     79  51  37 E8        29.96F
$$

NDZ004>008-012>016-024-026-027-054-040200-
NORTHEAST NORTH DAKOTA

CITY           SKY/WX    TMP DP  RH WIND       PRES   REMARKS
GRAND FORKS    PTCLDY    75  50  41 NW3       29.90S
GRND FRKS AFB  CLEAR     72  53  51 N2        29.91S
DEVILS LAKE    CLEAR     73  46  38 N7        29.93S
$$

NDZ022-023-025-028>030-036>039-047>053-040200-
SOUTHEAST NORTH DAKOTA

CITY           SKY/WX    TMP DP  RH WIND       PRES   REMARKS
FARGO          CLEAR     75  49  39 N7        29.91F
JAMESTOWN      CLEAR     73  55  53 N5        29.94F
$$




USA.gov is the U.S. government's official web portal to all federal, state and local government web resources and services.